Total_Precipitation_Accumulation
0.01 0.01 0.07 0.09 0.12 0.16 0.27 0.36 0.45 0.43 0.41 0.38 0.27 0.20 0.19 0.18 0.19 0.18 0.18 0.19 0.29 0.34 0.31 0.26 0.26 0.27 0.26 0.26 0.29 0.33 0.37 0.43 0.45 0.49 0.53 0.50 0.39 0.39 0.51 0.57 0.54 0.65 0.31
0.00 0.01 0.07 0.12 0.11 0.11 0.19 0.28 0.40 0.43 0.50 0.39 0.27 0.22 0.21 0.17 0.16 0.15 0.12 0.14 0.19 0.23 0.22 0.24 0.27 0.28 0.30 0.31 0.38 0.46 0.43 0.40 0.48 0.53 0.58 0.53 0.47 0.45 0.43 0.50 0.53 0.59 0.33
0.00 0.01 0.07 0.14 0.11 0.11 0.18 0.27 0.37 0.42 0.52 0.41 0.31 0.24 0.18 0.13 0.15 0.16 0.12 0.15 0.20 0.16 0.13 0.19 0.31 0.35 0.38 0.41 0.48 0.54 0.50 0.45 0.51 0.58 0.77 1.01 0.60 0.44 0.42 0.43 0.47 0.40 0.37
0.00 0.02 0.08 0.12 0.12 0.13 0.21 0.29 0.36 0.42 0.52 0.44 0.31 0.19 0.11 0.11 0.15 0.17 0.27 0.35 0.25 0.12 0.10 0.17 0.31 0.34 0.33 0.40 0.49 0.48 0.46 0.46 0.49 0.52 0.81 1.10 0.85 0.49 0.47 0.49 0.51 0.42 0.39
0.00 0.04 0.12 0.13 0.11 0.14 0.23 0.35 0.41 0.48 0.51 0.43 0.30 0.14 0.09 0.12 0.18 0.28 0.39 0.34 0.17 0.09 0.09 0.14 0.24 0.28 0.25 0.26 0.39 0.43 0.43 0.48 0.54 0.58 0.84 1.08 1.05 0.65 0.51 0.49 0.46 0.41 0.45
0.00 0.03 0.10 0.15 0.12 0.15 0.28 0.44 0.45 0.49 0.53 0.48 0.30 0.15 0.12 0.15 0.16 0.23 0.32 0.28 0.14 0.06 0.05 0.10 0.19 0.25 0.23 0.22 0.31 0.39 0.43 0.50 0.52 0.63 0.85 0.97 1.03 0.62 0.47 0.51 0.57 0.53 0.49
0.01 0.02 0.07 0.13 0.12 0.18 0.32 0.43 0.46 0.51 0.54 0.50 0.30 0.20 0.18 0.17 0.13 0.18 0.22 0.20 0.08 0.03 0.04 0.07 0.14 0.18 0.18 0.21 0.26 0.31 0.37 0.36 0.40 0.58 0.76 0.92 0.81 0.56 0.47 0.61 0.71 0.60 0.53
0.01 0.02 0.05 0.12 0.16 0.21 0.30 0.37 0.41 0.49 0.54 0.49 0.31 0.23 0.21 0.19 0.16 0.16 0.17 0.13 0.05 0.03 0.03 0.04 0.09 0.11 0.12 0.16 0.21 0.26 0.28 0.25 0.29 0.40 0.55 0.77 0.72 0.58 0.48 0.58 0.73 0.67 0.65
0.02 0.02 0.05 0.10 0.11 0.21 0.31 0.35 0.37 0.43 0.48 0.52 0.37 0.26 0.24 0.19 0.13 0.11 0.10 0.06 0.03 0.02 0.02 0.02 0.04 0.05 0.06 0.12 0.17 0.24 0.23 0.18 0.24 0.31 0.35 0.57 0.61 0.53 0.43 0.49 0.60 0.63 0.69
0.05 0.04 0.05 0.08 0.12 0.17 0.23 0.34 0.39 0.43 0.48 0.54 0.42 0.30 0.23 0.14 0.09 0.08 0.04 0.03 0.02 0.02 0.02 0.01 0.02 0.02 0.04 0.11 0.13 0.15 0.17 0.17 0.23 0.23 0.27 0.34 0.44 0.40 0.33 0.35 0.41 0.46 0.49
0.08 0.07 0.07 0.09 0.14 0.18 0.21 0.26 0.39 0.46 0.53 0.55 0.45 0.34 0.25 0.23 0.19 0.14 0.07 0.06 0.03 0.02 0.01 0.02 0.03 0.03 0.03 0.07 0.08 0.07 0.08 0.18 0.22 0.21 0.23 0.25 0.32 0.32 0.29 0.27 0.32 0.34 0.36
0.22 0.14 0.12 0.12 0.12 0.13 0.16 0.29 0.42 0.44 0.44 0.42 0.58 0.49 0.34 0.37 0.33 0.13 0.11 0.08 0.05 0.03 0.02 0.03 0.04 0.02 0.01 0.02 0.02 0.03 0.06 0.12 0.18 0.19 0.17 0.26 0.28 0.24 0.23 0.22 0.23 0.26 0.27
0.33 0.26 0.19 0.16 0.13 0.13 0.21 0.31 0.43 0.55 0.60 0.54 0.53 0.53 0.45 0.32 0.18 0.12 0.13 0.12 0.07 0.05 0.04 0.03 0.01 0.00 0.00 0.01 0.01 0.02 0.04 0.07 0.14 0.17 0.17 0.33 0.38 0.33 0.22 0.19 0.17 0.17 0.20
0.37 0.38 0.33 0.23 0.21 0.18 0.20 0.24 0.30 0.39 0.48 0.50 0.33 0.28 0.33 0.29 0.19 0.13 0.13 0.13 0.10 0.09 0.06 0.03 0.01 0.00 0.00 0.01 0.03 0.05 0.04 0.05 0.13 0.20 0.24 0.40 0.53 0.35 0.24 0.20 0.17 0.17 0.19
0.43 0.48 0.43 0.35 0.32 0.28 0.28 0.25 0.21 0.34 0.44 0.47 0.49 0.35 0.31 0.26 0.20 0.12 0.07 0.08 0.06 0.05 0.05 0.03 0.01 0.01 0.01 0.01 0.04 0.06 0.05 0.07 0.14 0.18 0.28 0.46 0.71 0.71 0.46 0.32 0.23 0.18 0.18
0.43 0.52 0.51 0.49 0.48 0.42 0.34 0.32 0.33 0.38 0.45 0.47 0.55 0.42 0.33 0.28 0.22 0.15 0.10 0.09 0.06 0.05 0.06 0.04 0.01 0.00 0.00 0.01 0.02 0.03 0.03 0.05 0.08 0.14 0.28 0.44 0.53 0.62 0.70 0.61 0.45 0.33 0.24
0.41 0.44 0.44 0.46 0.53 0.52 0.50 0.48 0.47 0.54 0.54 0.57 0.60 0.51 0.40 0.27 0.23 0.22 0.18 0.16 0.14 0.07 0.04 0.03 0.03 0.01 0.00 0.01 0.01 0.01 0.01 0.02 0.04 0.07 0.14 0.25 0.25 0.24 0.42 0.57 0.57 0.49 0.39
0.36 0.37 0.42 0.41 0.47 0.55 0.61 0.64 0.68 0.69 0.72 0.76 0.71 0.62 0.54 0.40 0.33 0.33 0.31 0.29 0.28 0.15 0.08 0.07 0.07 0.04 0.03 0.01 0.01 0.01 0.00 0.01 0.01 0.02 0.04 0.07 0.10 0.11 0.17 0.19 0.22 0.26 0.36
0.34 0.35 0.39 0.43 0.48 0.54 0.60 0.70 0.80 0.87 0.94 1.07 1.02 0.95 0.85 0.66 0.57 0.52 0.53 0.48 0.41 0.35 0.25 0.15 0.11 0.10 0.10 0.08 0.03 0.03 0.01 0.01 0.01 0.01 0.03 0.03 0.03 0.05 0.10 0.05 0.05 0.05 0.06
0.33 0.35 0.39 0.47 0.54 0.63 0.79 1.01 1.23 1.30 1.46 1.69 1.63 1.47 1.27 1.05 0.93 0.91 0.85 0.75 0.68 0.67 0.63 0.37 0.30 0.23 0.19 0.14 0.08 0.07 0.04 0.04 0.03 0.02 0.03 0.02 0.02 0.02 0.04 0.02 0.02 0.01 0.02
0.23 0.27 0.33 0.40 0.49 0.60 0.82 1.14 1.57 1.77 1.88 1.90 1.91 1.81 1.60 1.36 1.30 1.35 1.26 1.19 1.11 1.05 0.92 0.70 0.68 0.57 0.38 0.21 0.27 0.29 0.18 0.08 0.06 0.04 0.03 0.03 0.04 0.03 0.03 0.03 0.03 0.02 0.02
0.14 0.16 0.25 0.32 0.41 0.55 0.81 1.12 1.47 1.82 1.90 1.91 1.90 1.85 1.72 1.60 1.57 1.56 1.67 1.69 1.59 1.58 1.49 1.21 1.20 1.11 0.77 0.48 0.60 0.78 0.57 0.35 0.16 0.08 0.07 0.06 0.05 0.05 0.04 0.03 0.02 0.02 0.03
0.11 0.12 0.17 0.23 0.37 0.65 0.98 1.30 1.48 1.77 1.89 1.95 1.88 1.88 1.91 1.85 1.75 1.74 1.80 1.88 1.81 1.77 1.77 1.74 1.58 1.55 1.30 0.89 0.70 0.85 0.81 0.71 0.49 0.18 0.09 0.09 0.07 0.07 0.07 0.05 0.04 0.03 0.03
0.09 0.10 0.13 0.19 0.38 0.72 1.06 1.31 1.55 1.89 1.98 1.88 1.93 1.96 1.98 1.97 1.93 1.97 1.97 2.01 1.95 1.87 1.87 1.87 1.70 1.71 1.69 1.32 1.00 0.78 0.68 0.69 0.65 0.46 0.24 0.13 0.12 0.09 0.09 0.08 0.06 0.04 0.04
0.10 0.12 0.18 0.31 0.50 0.75 0.95 1.21 1.55 1.79 1.89 1.95 1.90 1.94 1.95 1.99 1.98 2.00 2.05 2.15 2.08 1.98 1.89 2.00 1.92 1.89 1.79 1.68 1.45 1.22 1.05 0.90 0.63 0.63 0.59 0.36 0.20 0.12 0.11 0.11 0.10 0.09 0.07
0.17 0.23 0.31 0.45 0.61 0.81 0.97 1.16 1.33 1.56 1.70 1.84 1.88 1.83 1.83 1.86 1.93 1.82 1.78 1.87 1.89 1.89 1.86 1.92 1.96 1.98 1.89 1.89 1.72 1.40 1.26 1.10 0.88 0.84 0.73 0.57 0.42 0.21 0.14 0.12 0.11 0.11 0.10